TimeEET,TemperatureF,Dew PointF,Humidity,Sea Level PressureIn,VisibilityMPH,Wind Direction,Wind SpeedMPH,Gust SpeedMPH,PrecipitationIn,Events,Conditions,WindDirDegrees,DateUTC
12:50 AM,23.0,21.2,93,30.18,4.3,Variable,1.2,-,N/A,,Mostly Cloudy,0,2013-02-14 22:50:00
1:50 AM,23.0,21.2,93,30.18,4.3,SSW,1.2,-,N/A,,Mostly Cloudy,210,2013-02-14 23:50:00
2:00 AM,22,22,100,,4,SSW,1.2,,,,Mist,210,2013-02-15 00:00:00
2:50 AM,23.0,21.2,93,30.15,4.3,ESE,3.5,-,N/A,,Mostly Cloudy,120,2013-02-15 00:50:00
3:50 AM,23.0,19.4,86,30.15,4.3,Calm,Calm,-,N/A,,Mostly Cloudy,0,2013-02-15 01:50:00
4:50 AM,23.0,21.2,93,30.12,6.2,Variable,1.2,-,N/A,,Mostly Cloudy,0,2013-02-15 02:50:00
5:50 AM,23.0,21.2,93,30.12,6.2,East,1.2,-,N/A,,Mostly Cloudy,90,2013-02-15 03:50:00
6:50 AM,23.0,21.2,93,30.09,3.7,NNE,2.3,-,N/A,,Mostly Cloudy,30,2013-02-15 04:50:00
7:50 AM,23.0,19.4,86,30.09,3.7,Variable,1.2,-,N/A,,Mostly Cloudy,0,2013-02-15 05:50:00
8:00 AM,23,21,87,,4,SSE,1.2,,,,Mist,150,2013-02-15 06:00:00
8:50 AM,30.2,21.2,69,30.09,4.3,Calm,Calm,-,N/A,,Mostly Cloudy,0,2013-02-15 06:50:00
9:50 AM,28.4,21.2,74,30.09,4.3,Calm,Calm,-,N/A,,Mostly Cloudy,0,2013-02-15 07:50:00
10:50 AM,28.4,21.2,74,30.06,5.0,Variable,1.2,-,N/A,,Mostly Cloudy,0,2013-02-15 08:50:00
11:50 AM,28.4,21.2,74,30.04,6.2,Calm,Calm,-,N/A,,Mostly Cloudy,0,2013-02-15 09:50:00
12:50 PM,28.4,23.0,80,30.01,6.2,Variable,1.2,-,N/A,,Mostly Cloudy,0,2013-02-15 10:50:00
1:50 PM,28.4,21.2,74,29.98,6.2,Variable,1.2,-,N/A,,Scattered Clouds,0,2013-02-15 11:50:00
2:00 PM,29,22,65,,6,SW,1.2,,,,Partly Cloudy,230,2013-02-15 12:00:00
2:50 PM,26.6,21.2,80,29.95,5.0,Variable,1.2,-,N/A,,Scattered Clouds,0,2013-02-15 12:50:00
3:50 PM,26.6,21.2,80,29.95,4.3,SSW,2.3,-,N/A,,Overcast,210,2013-02-15 13:50:00
4:50 PM,24.8,23.0,93,29.95,0.9,Variable,1.2,-,N/A,Snow,Light Snow,0,2013-02-15 14:50:00
5:50 PM,24.8,24.8,100,29.95,2.5,WSW,3.5,-,N/A,Snow,Light Snow,250,2013-02-15 15:50:00
6:50 PM,23.0,23.0,100,29.92,2.5,Calm,Calm,-,N/A,Snow,Light Snow,0,2013-02-15 16:50:00
7:50 PM,23.0,23.0,100,29.89,2.5,Variable,1.2,-,N/A,,Overcast,0,2013-02-15 17:50:00
8:00 PM,23,22,96,,6,South,1.2,,,,Mist,180,2013-02-15 18:00:00
8:50 PM,23.0,23.0,100,29.89,2.5,WNW,5.8,-,N/A,,Overcast,300,2013-02-15 18:50:00
9:50 PM,21.2,21.2,100,29.86,2.5,Calm,Calm,-,N/A,,Overcast,0,2013-02-15 19:50:00
10:50 PM,21.2,21.2,100,29.83,2.5,SE,5.8,-,N/A,,Overcast,130,2013-02-15 20:50:00
11:50 PM,21.2,21.2,100,29.83,3.7,NW,2.3,-,N/A,,Overcast,320,2013-02-15 21:50:00